Location: Earls Croome
(52.0667°N, 2.2000°W)
Time: 21:25:19
(UTC+00:00)

Cosmos 1153 Rocket - Pass Details

Date: 17 November 2019
Orbit: 953 x 1006 km, 82.9° (Epoch: 07 December)

Event Time Altitude Azimuth Distance (km) Brightness Sun altitude
Rises 05:07:46 0° 197° (SSW) 3,623 7.4 -21.8°
Reaches altitude 10° 05:10:16 10° 200° (SSW) 2,679 6.6 -21.4°
Maximum altitude 05:16:22 68° 283° (WNW) 1,027 4.3 -20.5°
Drops below altitude 10° 05:22:31 10° 7° (N) 2,701 6.8 -19.5°
Sets 05:25:03 0° 10° (N) 3,655 7.6 -19.2°
